WetterOnline ( https://www.wetteronline.de )

Wetter aktuell Gerbido

Aktuelles Wetter: Turin / Bric Della Croce (710m)

6-stündlich | Neueste Meldungen
Ortszeit Temperatur Wetter
So, 07.03. 19:00 6.2° C wolkig
So, 07.03. 13:00 6.0° C wolkig
So, 07.03. 7:00 4.4° C wolkig
So, 07.03. 1:00 4.4° C bedeckt
Sa, 06.03. 19:00 3.6° C Nebel
Sa, 06.03. 13:00 3.2° C Nebel
Sa, 06.03. 7:00 5.2° C leichter Regen
Sa, 06.03. 1:00 9.2° C wolkenlos
Ortszeit Temperatur Wetter
So, 07.03. 22:00 5.6° C leicht bewölkt
So, 07.03. 21:55 6° C bewölkt
So, 07.03. 21:00 6.0° C leicht bewölkt
So, 07.03. 20:55 6° C bewölkt
So, 07.03. 20:00 6.0° C wolkig
So, 07.03. 19:55 6° C bewölkt
So, 07.03. 19:00 6.2° C wolkig
So, 07.03. 18:55 6° C bewölkt
So, 07.03. 18:00 7.0° C wolkig
Ortszeit Relative Feuchte Sichtweite
So, 07.03. 19:00 77% 18 km
So, 07.03. 13:00 89% 15 km
So, 07.03. 7:00 95% 12 km
So, 07.03. 1:00 97% 15 km
Sa, 06.03. 19:00 100% 0.3 km
Sa, 06.03. 13:00 100% 100 m
Sa, 06.03. 7:00 100% 100 m
Sa, 06.03. 1:00 72% 12 km
Ortszeit Relative Feuchte Sichtweite
So, 07.03. 22:00 85% 18 km
So, 07.03. 21:55 81% >10 km
So, 07.03. 21:00 81% 18 km
So, 07.03. 20:55 81% >10 km
So, 07.03. 20:00 78% 18 km
So, 07.03. 19:55 75% >10 km
So, 07.03. 19:00 77% 18 km
So, 07.03. 18:55 75% >10 km
So, 07.03. 18:00 73% 20 km
Ortszeit Niederschlagsmenge Niederschlagsart
So, 07.03. 19:00 0.0 l/m2 in 12 Std. -
So, 07.03. 13:00 0.0 l/m2 in 6 Std. -
So, 07.03. 7:00 0.0 l/m2 in 12 Std. -
So, 07.03. 1:00 0.0 l/m2 in 6 Std. Nebel
Sa, 06.03. 19:00 2 l/m2 in 12 Std. Nebel
Sa, 06.03. 13:00 2 l/m2 in 6 Std. Regen, Nebel
Sa, 06.03. 7:00 0.8 l/m2 in 12 Std. Regen, Nebel
Sa, 06.03. 1:00 0.0 l/m2 in 6 Std. -
Ortszeit Niederschlagsmenge Niederschlagsart
So, 07.03. 22:00 keine Meldung -
So, 07.03. 21:55 keine Meldung -
So, 07.03. 21:00 keine Meldung -
So, 07.03. 20:55 keine Meldung -
So, 07.03. 20:00 keine Meldung -
So, 07.03. 19:55 keine Meldung -
So, 07.03. 19:00 keine Meldung -
So, 07.03. 18:55 keine Meldung -
So, 07.03. 18:00 keine Meldung -
Ortszeit Stärke Spitze Richtung
km/h Bft. km/h Grad Sektor
So, 07.03. 19:00 0 0 - - -
So, 07.03. 13:00 0 0 - - -
So, 07.03. 7:00 0 0 - - -
So, 07.03. 1:00 0 0 - - -
Sa, 06.03. 19:00 0 0 - - -
Sa, 06.03. 13:00 0 0 - - -
Sa, 06.03. 7:00 6 1 - 360° N
Sa, 06.03. 1:00 0 0 - - -
Ortszeit Stärke Spitze Richtung
km/h Bft. km/h Grad Sektor
So, 07.03. 22:00 0 0 - - -
So, 07.03. 21:55 0 0 - - -
So, 07.03. 21:00 0 0 - - -
So, 07.03. 20:55 0 0 - - -
So, 07.03. 20:00 0 0 - - -
So, 07.03. 19:55 0 0 - - -
So, 07.03. 19:00 0 0 - - -
So, 07.03. 18:55 0 0 - - -
So, 07.03. 18:00 4 1 - 200° S
Ortszeit Untergrenze Bedeckung Gattung
total tief tief mittel hoch
So, 07.03. 19:00 1200 m 6/8 6/8 Sc - -
So, 07.03. 13:00 600 m 6/8 6/8 Cu - -
So, 07.03. 7:00 900 m 8/8 6/8 Sc As -
So, 07.03. 1:00 600 m 8/8 8/8 Sc - -
Sa, 06.03. 19:00 - 8/8 - - - -
Sa, 06.03. 13:00 - 8/8 - - - -
Sa, 06.03. 7:00 - 8/8 - - - -
Sa, 06.03. 1:00 - 0/8 0/8 - - -
Ortszeit Bedeckungsgrad in Achtel und Wolkenuntergrenze
So, 07.03. 22:00 5(1500m)
So, 07.03. 21:55 5-7(1500m)
So, 07.03. 21:00 5(1500m)
So, 07.03. 20:55 5-7(1500m)
So, 07.03. 20:00 5(1200m)
So, 07.03. 19:55 5-7(1200m)
So, 07.03. 19:00 6(1200m)
So, 07.03. 18:55 5-7(1200m)
So, 07.03. 18:00 6(1290m)
Ortszeit Stationsdruck (hPa) Tendenz (hPa in 3 Std.)
So, 07.03. 19:00 936 - 1,3
So, 07.03. 13:00 940 - 1,0
So, 07.03. 7:00 942 - 1,1
So, 07.03. 1:00 944 0,0
Sa, 06.03. 19:00 944 0,0
Sa, 06.03. 13:00 943 + 1,3
Sa, 06.03. 7:00 939 + 1,8
Sa, 06.03. 1:00 936 + 1,0
Ortszeit Stationsdruck (hPa) Tendenz (hPa in 3 Std.)
So, 07.03. 22:00 936 0,0
So, 07.03. 21:55 - keine Meldung
So, 07.03. 21:00 936 - 0,1
So, 07.03. 20:55 - keine Meldung
So, 07.03. 20:00 936 - 0,8
So, 07.03. 19:55 - keine Meldung
So, 07.03. 19:00 936 - 1,3
So, 07.03. 18:55 - keine Meldung
So, 07.03. 18:00 936 - 1,8
Ortszeit Schneehöhe (cm)
So, 07.03. 19:00 -
So, 07.03. 13:00 -
So, 07.03. 7:00 0
So, 07.03. 1:00 -
Sa, 06.03. 19:00 -
Sa, 06.03. 13:00 -
Sa, 06.03. 7:00 0
Sa, 06.03. 1:00 -
Ortszeit Schneehöhe (cm)
So, 07.03. 22:00 -
So, 07.03. 21:55 -
So, 07.03. 21:00 -
So, 07.03. 20:55 -
So, 07.03. 20:00 -
So, 07.03. 19:55 -
So, 07.03. 19:00 -
So, 07.03. 18:55 -
So, 07.03. 18:00 -
Link zu dieser Seite / Seite empfehlen

Das Wetter in ...